Quick Links (Output Below):   Max & Min Temps   /   Climate Reports   /   Zone Forecasts
River Forecasts   /   Forestry Forecasts   /   Aviation Forecasts   /   Radars   /   Features

Zone Forecast (Independence County)

Pick a County:
Arkansas | Ashley | Baxter | Benton | Boone | Bradley | Calhoun | Carroll | Chicot | Clark | Clay
Cleburne | Cleveland | Columbia | Conway | Craighead | Crawford | Crittenden | Cross | Dallas
Desha | Drew | Faulkner | Franklin | Fulton | Garland | Grant | Greene | Hempstead | Hot Spring
Howard | Independence | Izard | Jackson | Jefferson | Johnson | Lafayette | Lawrence | Lee
Lincoln | Little River | Logan | Lonoke | Madison | Marion | Miller | Mississippi | Monroe
Montgomery | Nevada | Newton | Ouachita | Perry | Phillips | Pike | Poinsett | Polk | Pope | Prairie
Pulaski | Randolph | St. Francis | Saline | Scott | Searcy | Sebastian | Sevier | Sharp | Stone
Union | Van Buren | Washington | White | Woodruff | Yell
 Current Conditions 

WEATHER ROUNDUP FOR ARKANSAS
NATIONAL WEATHER SERVICE LITTLE ROCK AR
1000 AM CDT THU OCT 30 2014

NOTE: "FAIR" INDICATES FEW OR NO CLOUDS BELOW 12,000 FEET WITH NO
SIGNIFICANT WEATHER AND/OR OBSTRUCTIONS TO VISIBILITY.

ARZ001-003-010-029-301600-
NORTHWEST ARKANSAS
  
CITY           SKY/WX    TMP DP  RH WIND       PRES   REMARKS
FAYETTEVILLE   SUNNY     58  47  66 S10       30.13F                  
FORT SMITH     SUNNY     53  47  79 CALM      30.16S                  
HARRISON       SUNNY     53  44  71 SE5       30.12F                  
BENTONVILLE    PTSUNNY   55  43  62 SW8       30.12S                  
SILOAM SPGS    SUNNY     57  43  58 S14       30.13S                  
HIGHFILL       MOSUNNY   56  45  66 S7        30.12S                  
SPRINGDALE     MOSUNNY   63  45  51 SE7       30.14F                  
ARZ004-005-016-301600-
NORTH CENTRAL ARKANSAS
  
CITY           SKY/WX    TMP DP  RH WIND       PRES   REMARKS
BATESVILLE     SUNNY     54  39  58 CALM      30.17S                  
FLIPPIN        SUNNY     48  37  66 CALM      30.15S                  
MTN HOME       SUNNY     51  39  63 SE6       30.13F                  
ARZ040-041-301600-
WEST CENTRAL ARKANSAS
  
CITY           SKY/WX    TMP DP  RH WIND       PRES   REMARKS
MENA           SUNNY     59  50  72 CALM      30.18S                  
MOUNT IDA      SUNNY     52  47  83 CALM      30.15S                  
ARZ009-017-025-026-028-301600-
NORTHEAST ARKANSAS
  
CITY           SKY/WX    TMP DP  RH WIND       PRES   REMARKS
CORNING        FAIR      50  41  71 CALM      30.18S                  
JONESBORO      SUNNY     53  43  68 SE3       30.17S                  
NEWPORT        SUNNY     52  43  71 CALM      30.19S                  
WALNUT RIDGE   SUNNY     52  41  66 S6        30.16F                  
BLYTHEVILLE    SUNNY     57  43  59 SE10      30.17F                  
NW BLYTHEVILLE SUNNY     55  43  62 SE8       30.17F                  
ARZ022-023-033-042-044-301600-
CENTRAL ARKANSAS
  
CITY           SKY/WX    TMP DP  RH WIND       PRES   REMARKS
LITTLE ROCK    MOSUNNY   58  45  62 CALM      30.17S                  
N LITTLE ROCK  MOSUNNY   58  40  50 E6        30.17S                  
JACKSONVILLE   SUNNY     55  44  67 VRB2      30.17S                  
SEARCY         SUNNY     56  42  59 SE5       30.18F                  
HOT SPRINGS    SUNNY     50  48  93 SW3       30.18S                  
RUSSELLVILLE   SUNNY     53  48  83 SW3       30.16F                  
ARZ036-301600-
EAST ARKANSAS
  
CITY           SKY/WX    TMP DP  RH WIND       PRES   REMARKS
WEST MEMPHIS   SUNNY     55  46  71 SE6       30.16S                  
ARZ050-053-066-070-073-301600-
SOUTHWEST ARKANSAS
  
CITY           SKY/WX    TMP DP  RH WIND       PRES   REMARKS
ARKADELPHIA    FAIR      52  52 100 CALM      30.19R                  
CAMDEN         SUNNY     55  50  82 CALM      30.18S                  
TEXARKANA      SUNNY     61  48  62 VRB6      30.18R                  
DE QUEEN       SUNNY     54  50  86 CALM      30.17S                  
ARZ056-057-069-301600-
SOUTHEAST ARKANSAS
  
CITY           SKY/WX    TMP DP  RH WIND       PRES   REMARKS
PINE BLUFF     SUNNY     57  49  74 CALM      30.17F                  
STUTTGART      SUNNY     55  46  71 CALM      30.18S                  
MONTICELLO     SUNNY     60  49  66 CALM      30.18R                  


 Forecast 

LAST UPDATED: 1040 AM CDT THU OCT 30 2014

.TODAY...MOSTLY SUNNY. HIGHS IN THE UPPER 60S. SOUTH WINDS 5 TO
10 MPH. 
.TONIGHT...MOSTLY CLOUDY IN THE EVENING...BECOMING PARTLY CLOUDY.
A SLIGHT CHANCE OF SHOWERS IN THE EVENING. LOWS IN THE MID 40S.
WEST WINDS 5 TO 10 MPH. THE CHANCE OF PRECIPITATION 20 PERCENT IN
THE EVENING. AVERAGE RAINFALL LESS THAN 1/10 INCH. 
.FRIDAY...SUNNY...BREEZY...COOLER. HIGHS IN THE MID 50S. NORTH
WINDS 15 TO 20 MPH...WITH GUSTS TO AROUND 30 MPH. 
Back to Main Page
http://www.srh.noaa.gov/lzk/qfcst.php

USA.gov is the U.S. government's official web portal to all federal, state and local government web resources and services.